This is the latest recevied weather packets stored in our database for station/object N8BAP. If no packets are shown the sender has not sent any weather packets the latest 10 day(s).
| Time | Temp. | Humidity | Pressure | Rain* | Wind** | Luminosity | Snow |
|---|---|---|---|---|---|---|---|
| 1787862394 | 28.89° C | 56% | 1019.9 hPa | 0 mm | - | 509 W/m² | - |
| 1787862090 | 28.89° C | 60% | 1019.9 hPa | 0 mm | - | 505 W/m² | - |
| 1787861790 | 28.89° C | 61% | 1020.1 hPa | 0 mm | - | 509 W/m² | - |
| 1787861488 | 28.89° C | 55% | 1020.1 hPa | 0 mm | - | 478 W/m² | - |
| 1787861184 | 28.89° C | 56% | 1019.9 hPa | 0 mm | - | 518 W/m² | - |
| 1787860882 | 28.89° C | 56% | 1020 hPa | 0 mm | - | 567 W/m² | - |
| 1787860582 | 28.89° C | 59% | 1020.1 hPa | 0 mm | - | 558 W/m² | - |
| 1787860272 | 28.33° C | 60% | 1020 hPa | 0 mm | - | 521 W/m² | - |
| 1787859967 | 27.78° C | 63% | 1020.4 hPa | 0 mm | - | 527 W/m² | - |
| 1787859663 | 28.33° C | 60% | 1020.3 hPa | 0 mm | - | 201 W/m² | - |
| 1787859362 | 27.78° C | 66% | 1020.2 hPa | 0 mm | - | 621 W/m² | - |
| 1787859058 | 28.33° C | 61% | 1020.3 hPa | 0 mm | - | 159 W/m² | - |
| 1787858754 | 28.89° C | 62% | 1020.3 hPa | 0 mm | - | 633 W/m² | - |
| 1787858450 | 28.33° C | 60% | 1020.3 hPa | 0 mm | - | 643 W/m² | - |
| 1787858149 | 28.33° C | 64% | 1020.3 hPa | 0 mm | - | 645 W/m² | - |
| 1787857844 | 28.89° C | 61% | 1020.1 hPa | 0 mm | - | 687 W/m² | - |
| 1787857539 | 28.89° C | 64% | 1020.2 hPa | 0 mm | - | 675 W/m² | - |
| 1787857239 | 28.89° C | 59% | 1020.3 hPa | 0 mm | - | 685 W/m² | - |
| 1787856938 | 28.33° C | 62% | 1020.3 hPa | 0 mm | - | 714 W/m² | - |
| 1787856633 | 28.33° C | 60% | 1020.2 hPa | 0 mm | - | 259 W/m² | - |
| 1787856328 | 28.33° C | 57% | 1020.3 hPa | 0 mm | - | 678 W/m² | - |
| 1787856024 | 27.78° C | 63% | 1020.4 hPa | 0 mm | - | 713 W/m² | - |
| 1787855723 | 27.22° C | 65% | 1020.3 hPa | 0 mm | - | 720 W/m² | - |
| 1787855418 | 27.78° C | 64% | 1020.5 hPa | 0 mm | - | 215 W/m² | - |
| 1787855114 | 27.78° C | 60% | 1020.2 hPa | 0 mm | - | 706 W/m² | - |
* Rain latest hour (hover to see other rain measurements)
** Current wind speed in m/s (hover to see current wind gust speed)